Year,Month,Day,Hour,Minute,Value (Times are PST for temperature in C)
2016,04,16,00,00,9.20
2016,04,16,00,01,9.20
2016,04,16,00,02,9.20
2016,04,16,00,03,9.20
2016,04,16,00,04,9.20
2016,04,16,00,05,9.20
2016,04,16,00,06,9.20
2016,04,16,00,07,9.20
2016,04,16,00,08,9.20
2016,04,16,00,09,9.20
2016,04,16,00,10,9.20
2016,04,16,00,11,9.10
2016,04,16,00,12,9.10
2016,04,16,00,13,9.10
2016,04,16,00,14,9.10
2016,04,16,00,15,9.00
2016,04,16,00,16,9.00
2016,04,16,00,17,9.00
2016,04,16,00,18,9.00
2016,04,16,00,19,8.90
2016,04,16,00,20,8.90
2016,04,16,00,21,8.90
2016,04,16,00,22,8.90
2016,04,16,00,23,8.80
2016,04,16,00,24,8.80
2016,04,16,00,25,8.80
2016,04,16,00,26,8.80
2016,04,16,00,27,8.70
2016,04,16,00,28,8.70
2016,04,16,00,29,8.70
2016,04,16,00,30,8.70
2016,04,16,00,31,8.70
2016,04,16,00,32,8.70
2016,04,16,00,33,8.70
2016,04,16,00,34,8.70
2016,04,16,00,35,8.70
2016,04,16,00,36,8.70
2016,04,16,00,37,8.70
2016,04,16,00,38,8.70
2016,04,16,00,39,8.70
2016,04,16,00,40,8.70
2016,04,16,00,41,8.70
2016,04,16,00,42,8.70
2016,04,16,00,43,8.70
2016,04,16,00,44,8.70
2016,04,16,00,45,8.70
2016,04,16,00,46,8.70
2016,04,16,00,47,8.70
2016,04,16,00,48,8.70
2016,04,16,00,49,8.70
2016,04,16,00,50,8.60
2016,04,16,00,51,8.60
2016,04,16,00,52,8.60
2016,04,16,00,53,8.60
2016,04,16,00,54,8.60
2016,04,16,00,55,8.60
2016,04,16,00,56,8.60
2016,04,16,00,57,8.60
2016,04,16,00,58,8.50
2016,04,16,00,59,8.50
2016,04,16,01,00,8.50
2016,04,16,01,01,8.50
2016,04,16,01,02,8.50
2016,04,16,01,03,8.50
2016,04,16,01,04,8.40
2016,04,16,01,05,8.40
2016,04,16,01,06,8.40
2016,04,16,01,07,8.40
2016,04,16,01,08,8.30
2016,04,16,01,09,8.30
2016,04,16,01,10,8.30
2016,04,16,01,11,8.30
2016,04,16,01,12,8.30
2016,04,16,01,13,8.20
2016,04,16,01,14,8.20
2016,04,16,01,15,8.20
2016,04,16,01,16,8.20
2016,04,16,01,17,8.20
2016,04,16,01,18,8.10
2016,04,16,01,19,8.10
2016,04,16,01,20,8.10
2016,04,16,01,21,8.10
2016,04,16,01,22,8.10
2016,04,16,01,23,8.10
2016,04,16,01,24,8.10
2016,04,16,01,25,8.10
2016,04,16,01,26,8.10
2016,04,16,01,27,8.10
2016,04,16,01,28,8.10
2016,04,16,01,29,8.10
2016,04,16,01,30,8.10
2016,04,16,01,31,8.10
2016,04,16,01,32,8.20
2016,04,16,01,33,8.20
2016,04,16,01,34,8.10
2016,04,16,01,35,8.10
2016,04,16,01,36,8.10
2016,04,16,01,37,8.10
2016,04,16,01,38,8.10
2016,04,16,01,39,8.00
2016,04,16,01,40,8.00
2016,04,16,01,41,8.00
2016,04,16,01,42,8.00
2016,04,16,01,43,7.90
2016,04,16,01,44,7.90
2016,04,16,01,45,7.90
2016,04,16,01,46,7.90
2016,04,16,01,47,7.90
2016,04,16,01,48,7.90
2016,04,16,01,49,8.00
2016,04,16,01,50,8.00
2016,04,16,01,51,8.00
2016,04,16,01,52,8.00
2016,04,16,01,53,8.00
2016,04,16,01,54,8.00
2016,04,16,01,55,8.00
2016,04,16,01,56,8.10
2016,04,16,01,57,8.10
2016,04,16,01,58,8.10
2016,04,16,01,59,8.10
2016,04,16,02,00,8.10
2016,04,16,02,01,8.00
2016,04,16,02,02,8.00
2016,04,16,02,03,8.00
2016,04,16,02,04,8.00
2016,04,16,02,05,8.00
2016,04,16,02,06,7.90
2016,04,16,02,07,7.90
2016,04,16,02,08,7.90
2016,04,16,02,09,7.90
2016,04,16,02,10,7.90
2016,04,16,02,11,7.90
2016,04,16,02,12,7.80
2016,04,16,02,13,7.80
2016,04,16,02,14,7.80
2016,04,16,02,15,7.80
2016,04,16,02,16,7.80
2016,04,16,02,17,7.80
2016,04,16,02,18,7.80
2016,04,16,02,19,7.80
2016,04,16,02,20,7.70
2016,04,16,02,21,7.70
2016,04,16,02,22,7.70
2016,04,16,02,23,7.70
2016,04,16,02,24,7.60
2016,04,16,02,25,7.60
2016,04,16,02,26,7.60
2016,04,16,02,27,7.60
2016,04,16,02,28,7.60
2016,04,16,02,29,7.60
2016,04,16,02,30,7.60
2016,04,16,02,31,7.60
2016,04,16,02,32,7.60
2016,04,16,02,33,7.60
2016,04,16,02,34,7.60
2016,04,16,02,35,7.60
2016,04,16,02,36,7.70
2016,04,16,02,37,7.70
2016,04,16,02,38,7.70
2016,04,16,02,39,7.70
2016,04,16,02,40,7.80
2016,04,16,02,41,7.80
2016,04,16,02,42,7.80
2016,04,16,02,43,7.80
2016,04,16,02,44,7.80
2016,04,16,02,45,7.80
2016,04,16,02,46,7.80
2016,04,16,02,47,7.80
2016,04,16,02,48,7.80
2016,04,16,02,49,7.80
2016,04,16,02,50,7.80
2016,04,16,02,51,7.80
2016,04,16,02,52,7.80
2016,04,16,02,53,7.80
2016,04,16,02,54,7.80
2016,04,16,02,55,7.80
2016,04,16,02,56,7.90
2016,04,16,02,57,7.90
2016,04,16,02,58,7.90
2016,04,16,02,59,7.90
2016,04,16,03,00,7.90
2016,04,16,03,01,7.90
2016,04,16,03,02,7.90
2016,04,16,03,03,8.00
2016,04,16,03,04,8.00
2016,04,16,03,05,8.00
2016,04,16,03,06,8.00
2016,04,16,03,07,8.00
2016,04,16,03,08,8.00
2016,04,16,03,09,8.00
2016,04,16,03,10,8.00
2016,04,16,03,11,8.00
2016,04,16,03,12,8.00
2016,04,16,03,13,8.00
2016,04,16,03,14,8.00
2016,04,16,03,15,8.00
2016,04,16,03,16,8.00
2016,04,16,03,17,8.00
2016,04,16,03,18,8.00
2016,04,16,03,19,8.00
2016,04,16,03,20,8.00
2016,04,16,03,21,8.00
2016,04,16,03,22,8.00
2016,04,16,03,23,8.00
2016,04,16,03,24,8.00
2016,04,16,03,25,8.00
2016,04,16,03,26,8.00
2016,04,16,03,27,8.00
2016,04,16,03,28,8.10
2016,04,16,03,29,8.10
2016,04,16,03,30,8.10
2016,04,16,03,31,8.10
2016,04,16,03,32,8.10
2016,04,16,03,33,8.10
2016,04,16,03,34,8.20
2016,04,16,03,35,8.20
2016,04,16,03,36,8.20
2016,04,16,03,37,8.20
2016,04,16,03,38,8.10
2016,04,16,03,39,8.10
2016,04,16,03,40,8.10
2016,04,16,03,41,8.10
2016,04,16,03,42,8.10
2016,04,16,03,43,8.00
2016,04,16,03,44,8.00
2016,04,16,03,45,8.00
2016,04,16,03,46,8.00
2016,04,16,03,47,7.90
2016,04,16,03,48,7.90
2016,04,16,03,49,7.90
2016,04,16,03,50,7.90
2016,04,16,03,51,7.90
2016,04,16,03,52,7.90
2016,04,16,03,53,7.90
2016,04,16,03,54,7.90
2016,04,16,03,55,7.90
2016,04,16,03,56,7.90
2016,04,16,03,57,7.90
2016,04,16,03,58,7.90
2016,04,16,03,59,7.90
2016,04,16,04,00,7.90
2016,04,16,04,01,8.00
2016,04,16,04,02,7.90
2016,04,16,04,03,7.90
2016,04,16,04,04,7.90
2016,04,16,04,05,8.00
2016,04,16,04,06,8.00
2016,04,16,04,07,8.00
2016,04,16,04,08,7.90
2016,04,16,04,09,7.90
2016,04,16,04,10,7.90
2016,04,16,04,11,7.90
2016,04,16,04,12,7.90
2016,04,16,04,13,7.90
2016,04,16,04,14,7.90
2016,04,16,04,15,7.90
2016,04,16,04,16,7.90
2016,04,16,04,17,7.90
2016,04,16,04,18,7.90
2016,04,16,04,19,7.80
2016,04,16,04,20,7.80
2016,04,16,04,21,7.80
2016,04,16,04,22,7.80
2016,04,16,04,23,7.80
2016,04,16,04,24,7.80
2016,04,16,04,25,7.80
2016,04,16,04,26,7.80
2016,04,16,04,27,7.80
2016,04,16,04,28,7.80
2016,04,16,04,29,7.80
2016,04,16,04,30,7.80
2016,04,16,04,31,7.80
2016,04,16,04,32,7.80
2016,04,16,04,33,7.80
2016,04,16,04,34,7.90
2016,04,16,04,35,7.90
2016,04,16,04,36,7.90
2016,04,16,04,37,7.90
2016,04,16,04,38,7.90
2016,04,16,04,39,7.90
2016,04,16,04,40,7.90
2016,04,16,04,41,7.90
2016,04,16,04,42,7.80
2016,04,16,04,43,7.80
2016,04,16,04,44,7.80
2016,04,16,04,45,7.80
2016,04,16,04,46,7.80
2016,04,16,04,47,7.80
2016,04,16,04,48,7.80
2016,04,16,04,49,7.80
2016,04,16,04,50,7.80
2016,04,16,04,51,7.80
2016,04,16,04,52,7.80
2016,04,16,04,53,7.80
2016,04,16,04,54,7.80
2016,04,16,04,55,7.80
2016,04,16,04,56,7.80
2016,04,16,04,57,7.80
2016,04,16,04,58,7.90
2016,04,16,04,59,7.90
2016,04,16,05,00,7.90
2016,04,16,05,01,7.90
2016,04,16,05,02,7.90
2016,04,16,05,03,7.90
2016,04,16,05,04,7.90
2016,04,16,05,05,7.90
2016,04,16,05,06,7.90
2016,04,16,05,07,7.90
2016,04,16,05,08,7.90
2016,04,16,05,09,7.90
2016,04,16,05,10,8.00
2016,04,16,05,11,8.00
2016,04,16,05,12,8.00
2016,04,16,05,13,8.00
2016,04,16,05,14,8.00
2016,04,16,05,15,8.10
2016,04,16,05,16,8.10
2016,04,16,05,17,8.10
2016,04,16,05,18,8.10
2016,04,16,05,19,8.10
2016,04,16,05,20,8.10
2016,04,16,05,21,8.20
2016,04,16,05,22,8.20
2016,04,16,05,23,8.20
2016,04,16,05,24,8.20
2016,04,16,05,25,8.20
2016,04,16,05,26,8.20
2016,04,16,05,27,8.20
2016,04,16,05,28,8.20
2016,04,16,05,29,8.20
2016,04,16,05,30,8.20
2016,04,16,05,31,8.20
2016,04,16,05,32,8.20
2016,04,16,05,33,8.20
2016,04,16,05,34,8.20
2016,04,16,05,35,8.20
2016,04,16,05,36,8.20
2016,04,16,05,37,8.20
2016,04,16,05,38,8.20
2016,04,16,05,39,8.20
2016,04,16,05,40,8.20
2016,04,16,05,41,8.20
2016,04,16,05,42,8.20
2016,04,16,05,43,8.30
2016,04,16,05,44,8.30
2016,04,16,05,45,8.30
2016,04,16,05,46,8.30
2016,04,16,05,47,8.30
2016,04,16,05,48,8.30
2016,04,16,05,49,8.30
2016,04,16,05,50,8.30
2016,04,16,05,51,8.30
2016,04,16,05,52,8.30
2016,04,16,05,53,8.30
2016,04,16,05,54,8.30
2016,04,16,05,55,8.30
2016,04,16,05,56,8.30
2016,04,16,05,57,8.30
2016,04,16,05,58,8.30
2016,04,16,05,59,8.30
2016,04,16,06,00,8.30
2016,04,16,06,01,8.30
2016,04,16,06,02,8.30
2016,04,16,06,03,8.30
2016,04,16,06,04,8.30
2016,04,16,06,05,8.30
2016,04,16,06,06,8.30
2016,04,16,06,07,8.30
2016,04,16,06,08,8.30
2016,04,16,06,09,8.30
2016,04,16,06,10,8.30
2016,04,16,06,11,8.30
2016,04,16,06,12,8.30
2016,04,16,06,13,8.30
2016,04,16,06,14,8.30
2016,04,16,06,15,8.30
2016,04,16,06,16,8.30
2016,04,16,06,17,8.30
2016,04,16,06,18,8.30
2016,04,16,06,19,8.30
2016,04,16,06,20,8.30
2016,04,16,06,21,8.30
2016,04,16,06,22,8.30
2016,04,16,06,23,8.30
2016,04,16,06,24,8.30
2016,04,16,06,25,8.30
2016,04,16,06,26,8.40
2016,04,16,06,27,8.40
2016,04,16,06,28,8.40
2016,04,16,06,29,8.40
2016,04,16,06,30,8.40
2016,04,16,06,31,8.40
2016,04,16,06,32,8.40
2016,04,16,06,33,8.40
2016,04,16,06,34,8.40
2016,04,16,06,35,8.40
2016,04,16,06,36,8.40
2016,04,16,06,37,8.40
2016,04,16,06,38,8.40
2016,04,16,06,39,8.40
2016,04,16,06,40,8.40
2016,04,16,06,41,8.50
2016,04,16,06,42,8.50
2016,04,16,06,43,8.50
2016,04,16,06,44,8.50
2016,04,16,06,45,8.50
2016,04,16,06,46,8.50
2016,04,16,06,47,8.50
2016,04,16,06,48,8.50
2016,04,16,06,49,8.50
2016,04,16,06,50,8.50
2016,04,16,06,51,8.50
2016,04,16,06,52,8.50
2016,04,16,06,53,8.60
2016,04,16,06,54,8.60
2016,04,16,06,55,8.60
2016,04,16,06,56,8.60
2016,04,16,06,57,8.60
2016,04,16,06,58,8.60
2016,04,16,06,59,8.60
2016,04,16,07,00,8.60
2016,04,16,07,01,8.60
2016,04,16,07,02,8.70
2016,04,16,07,03,8.70
2016,04,16,07,04,8.70
2016,04,16,07,05,8.70
2016,04,16,07,06,8.70
2016,04,16,07,07,8.70
2016,04,16,07,08,8.70
2016,04,16,07,09,8.80
2016,04,16,07,10,8.80
2016,04,16,07,11,8.80
2016,04,16,07,12,8.80
2016,04,16,07,13,8.80
2016,04,16,07,14,8.90
2016,04,16,07,15,8.90
2016,04,16,07,16,8.90
2016,04,16,07,17,8.90
2016,04,16,07,18,8.90
2016,04,16,07,19,8.90
2016,04,16,07,20,8.90
2016,04,16,07,21,8.90
2016,04,16,07,22,8.90
2016,04,16,07,23,8.90
2016,04,16,07,24,8.90
2016,04,16,07,25,8.90
2016,04,16,07,26,8.90
2016,04,16,07,27,8.90
2016,04,16,07,28,8.90
2016,04,16,07,29,8.90
2016,04,16,07,30,9.00
2016,04,16,07,31,9.00
2016,04,16,07,32,9.00
2016,04,16,07,33,9.00
2016,04,16,07,34,9.00
2016,04,16,07,35,9.00
2016,04,16,07,36,9.00
2016,04,16,07,37,9.00
2016,04,16,07,38,9.00
2016,04,16,07,39,9.00
2016,04,16,07,40,9.00
2016,04,16,07,41,9.10
2016,04,16,07,42,9.10
2016,04,16,07,43,9.10
2016,04,16,07,44,9.10
2016,04,16,07,45,9.10
2016,04,16,07,46,9.10
2016,04,16,07,47,9.10
2016,04,16,07,48,9.10
2016,04,16,07,49,9.10
2016,04,16,07,50,9.20
2016,04,16,07,51,9.20
2016,04,16,07,52,9.20
2016,04,16,07,53,9.20
2016,04,16,07,54,9.20
2016,04,16,07,55,9.20
2016,04,16,07,56,9.20
2016,04,16,07,57,9.20
2016,04,16,07,58,9.30
2016,04,16,07,59,9.30
2016,04,16,08,00,9.30
2016,04,16,08,01,9.30
2016,04,16,08,02,9.30
2016,04,16,08,03,9.30
2016,04,16,08,04,9.30
2016,04,16,08,05,9.30
2016,04,16,08,06,9.40
2016,04,16,08,07,9.40
2016,04,16,08,08,9.40
2016,04,16,08,09,9.40
2016,04,16,08,10,9.40
2016,04,16,08,11,9.40
2016,04,16,08,12,9.40
2016,04,16,08,13,9.40
2016,04,16,08,14,9.40
2016,04,16,08,15,9.40
2016,04,16,08,16,9.40
2016,04,16,08,17,9.30
2016,04,16,08,18,9.30
2016,04,16,08,19,9.30
2016,04,16,08,20,9.30
2016,04,16,08,21,9.30
2016,04,16,08,22,9.40
2016,04,16,08,23,9.30
2016,04,16,08,24,9.30
2016,04,16,08,25,9.30
2016,04,16,08,26,9.30
2016,04,16,08,27,9.30
2016,04,16,08,28,9.30
2016,04,16,08,29,9.30
2016,04,16,08,30,9.40
2016,04,16,08,31,9.40
2016,04,16,08,32,9.40
2016,04,16,08,33,9.50
2016,04,16,08,34,9.50
2016,04,16,08,35,9.50
2016,04,16,08,36,9.60
2016,04,16,08,37,9.60
2016,04,16,08,38,9.60
2016,04,16,08,39,9.60
2016,04,16,08,40,9.70
2016,04,16,08,41,9.70
2016,04,16,08,42,9.70
2016,04,16,08,43,9.60
2016,04,16,08,44,9.60
2016,04,16,08,45,9.70
2016,04,16,08,46,9.70
2016,04,16,08,47,9.70
2016,04,16,08,48,9.70
2016,04,16,08,49,9.70
2016,04,16,08,50,9.70
2016,04,16,08,51,9.70
2016,04,16,08,52,9.80
2016,04,16,08,53,9.80
2016,04,16,08,54,9.90
2016,04,16,08,55,9.90
2016,04,16,08,56,9.90
2016,04,16,08,57,10.00
2016,04,16,08,58,10.10
2016,04,16,08,59,10.10
2016,04,16,09,00,10.10
2016,04,16,09,01,10.20
2016,04,16,09,02,10.20
2016,04,16,09,03,10.30
2016,04,16,09,04,10.30
2016,04,16,09,05,10.40
2016,04,16,09,06,10.40
2016,04,16,09,07,10.40
2016,04,16,09,08,10.60
2016,04,16,09,09,10.60
2016,04,16,09,10,10.60
2016,04,16,09,11,10.60
2016,04,16,09,12,10.60
2016,04,16,09,13,10.60
2016,04,16,09,14,10.60
2016,04,16,09,15,10.60
2016,04,16,09,16,10.60
2016,04,16,09,17,10.60
2016,04,16,09,18,10.60
2016,04,16,09,19,10.60
2016,04,16,09,20,10.60
2016,04,16,09,21,10.60
2016,04,16,09,22,10.60
2016,04,16,09,23,10.60
2016,04,16,09,24,10.60
2016,04,16,09,25,10.60
2016,04,16,09,26,10.60
2016,04,16,09,27,10.70
2016,04,16,09,28,10.60
2016,04,16,09,29,10.60
2016,04,16,09,30,10.50
2016,04,16,09,31,10.40
2016,04,16,09,32,10.40
2016,04,16,09,33,10.40
2016,04,16,09,34,10.40
2016,04,16,09,35,10.30
2016,04,16,09,36,10.30
2016,04,16,09,37,10.30
2016,04,16,09,38,10.30
2016,04,16,09,39,10.40
2016,04,16,09,40,10.40
2016,04,16,09,41,10.40
2016,04,16,09,42,10.40
2016,04,16,09,43,10.40
2016,04,16,09,44,10.50
2016,04,16,09,45,10.60
2016,04,16,09,46,10.60
2016,04,16,09,47,10.60
2016,04,16,09,48,10.60
2016,04,16,09,49,10.60
2016,04,16,09,50,10.60
2016,04,16,09,51,10.60
2016,04,16,09,52,10.70
2016,04,16,09,53,10.70
2016,04,16,09,54,10.70
2016,04,16,09,55,10.80
2016,04,16,09,56,10.80
2016,04,16,09,57,10.90
2016,04,16,09,58,10.90
2016,04,16,09,59,10.90
2016,04,16,10,00,11.00
2016,04,16,10,01,11.00
2016,04,16,10,02,10.90
2016,04,16,10,03,10.90
2016,04,16,10,04,10.80
2016,04,16,10,05,10.80
2016,04,16,10,06,10.80
2016,04,16,10,07,10.80
2016,04,16,10,08,10.90
2016,04,16,10,09,10.90
2016,04,16,10,10,10.90
2016,04,16,10,11,10.90
2016,04,16,10,12,10.90
2016,04,16,10,13,10.90
2016,04,16,10,14,10.90
2016,04,16,10,15,10.90
2016,04,16,10,16,11.00
2016,04,16,10,17,11.10
2016,04,16,10,18,11.10
2016,04,16,10,19,11.20
2016,04,16,10,20,11.20
2016,04,16,10,21,11.30
2016,04,16,10,22,11.30
2016,04,16,10,23,11.20
2016,04,16,10,24,11.20
2016,04,16,10,25,11.20
2016,04,16,10,26,11.10
2016,04,16,10,27,11.10
2016,04,16,10,28,11.10
2016,04,16,10,29,10.90
2016,04,16,10,30,10.90
2016,04,16,10,31,11.00
2016,04,16,10,32,11.10
2016,04,16,10,33,11.10
2016,04,16,10,34,11.20
2016,04,16,10,35,11.20
2016,04,16,10,36,11.10
2016,04,16,10,37,11.20
2016,04,16,10,38,11.20
2016,04,16,10,39,11.30
2016,04,16,10,40,11.30
2016,04,16,10,41,11.40
2016,04,16,10,42,11.30
2016,04,16,10,43,11.30
2016,04,16,10,44,11.30
2016,04,16,10,45,11.20
2016,04,16,10,46,11.10
2016,04,16,10,47,11.10
2016,04,16,10,48,11.20
2016,04,16,10,49,11.30
2016,04,16,10,50,11.40
2016,04,16,10,51,11.40
2016,04,16,10,52,11.40
2016,04,16,10,53,11.40
2016,04,16,10,54,11.40
2016,04,16,10,55,11.40
2016,04,16,10,56,11.50
2016,04,16,10,57,11.60
2016,04,16,10,58,11.60
2016,04,16,10,59,11.60
2016,04,16,11,00,11.60
2016,04,16,11,01,11.60
2016,04,16,11,02,11.60
2016,04,16,11,03,11.60
2016,04,16,11,04,11.60
2016,04,16,11,05,11.70
2016,04,16,11,06,11.70
2016,04,16,11,07,11.80
2016,04,16,11,08,11.80
2016,04,16,11,09,11.80
2016,04,16,11,10,11.80
2016,04,16,11,11,11.80
2016,04,16,11,12,11.90
2016,04,16,11,13,11.90
2016,04,16,11,14,11.90
2016,04,16,11,15,11.90
2016,04,16,11,16,11.90
2016,04,16,11,17,12.00
2016,04,16,11,18,12.00
2016,04,16,11,19,12.00
2016,04,16,11,20,12.00
2016,04,16,11,21,12.00
2016,04,16,11,22,12.00
2016,04,16,11,23,12.00
2016,04,16,11,24,12.10
2016,04,16,11,25,12.10
2016,04,16,11,26,12.10
2016,04,16,11,27,12.10
2016,04,16,11,28,12.20
2016,04,16,11,29,12.20
2016,04,16,11,30,12.10
2016,04,16,11,31,12.00
2016,04,16,11,32,12.00
2016,04,16,11,33,12.10
2016,04,16,11,34,12.20
2016,04,16,11,35,12.30
2016,04,16,11,36,12.30
2016,04,16,11,37,12.30
2016,04,16,11,38,12.30
2016,04,16,11,39,12.30
2016,04,16,11,40,12.40
2016,04,16,11,41,12.30
2016,04,16,11,42,12.20
2016,04,16,11,43,12.10
2016,04,16,11,44,12.10
2016,04,16,11,45,12.10
2016,04,16,11,46,12.20
2016,04,16,11,47,12.30
2016,04,16,11,48,12.30
2016,04,16,11,49,12.30
2016,04,16,11,50,12.40
2016,04,16,11,51,12.50
2016,04,16,11,52,12.50
2016,04,16,11,53,12.50
2016,04,16,11,54,12.40
2016,04,16,11,55,12.30
2016,04,16,11,56,12.30
2016,04,16,11,57,12.20
2016,04,16,11,58,12.20
2016,04,16,11,59,12.20
2016,04,16,12,00,12.10
2016,04,16,12,01,12.10
2016,04,16,12,02,12.10
2016,04,16,12,03,12.20
2016,04,16,12,04,12.20
2016,04,16,12,05,12.20
2016,04,16,12,06,12.30
2016,04,16,12,07,12.30
2016,04,16,12,08,12.30
2016,04,16,12,09,12.30
2016,04,16,12,10,12.30
2016,04,16,12,11,12.30
2016,04,16,12,12,12.30
2016,04,16,12,13,12.40
2016,04,16,12,14,12.50
2016,04,16,12,15,12.50
2016,04,16,12,16,12.50
2016,04,16,12,17,12.50
2016,04,16,12,18,12.60
2016,04,16,12,19,12.60
2016,04,16,12,20,12.70
2016,04,16,12,21,12.80
2016,04,16,12,22,12.90
2016,04,16,12,23,12.90
2016,04,16,12,24,12.90
2016,04,16,12,25,12.80
2016,04,16,12,26,12.80
2016,04,16,12,27,12.80
2016,04,16,12,28,12.80
2016,04,16,12,29,12.90
2016,04,16,12,30,13.00
2016,04,16,12,31,13.10
2016,04,16,12,32,13.30
2016,04,16,12,33,13.40
2016,04,16,12,34,13.50
2016,04,16,12,35,13.60
2016,04,16,12,36,13.60
2016,04,16,12,37,13.60
2016,04,16,12,38,13.50
2016,04,16,12,39,13.50
2016,04,16,12,40,13.40
2016,04,16,12,41,13.40
2016,04,16,12,42,13.40
2016,04,16,12,43,13.50
2016,04,16,12,44,13.60
2016,04,16,12,45,13.70
2016,04,16,12,46,13.70
2016,04,16,12,47,13.70
2016,04,16,12,48,13.70
2016,04,16,12,49,13.70
2016,04,16,12,50,13.70
2016,04,16,12,51,13.80
2016,04,16,12,52,13.90
2016,04,16,12,53,14.10
2016,04,16,12,54,14.20
2016,04,16,12,55,14.20
2016,04,16,12,56,14.20
2016,04,16,12,57,14.20
2016,04,16,12,58,14.20
2016,04,16,12,59,14.20
2016,04,16,13,00,14.20
2016,04,16,13,01,14.20
2016,04,16,13,02,14.10
2016,04,16,13,03,14.10
2016,04,16,13,04,14.00
2016,04,16,13,05,14.00
2016,04,16,13,06,14.00
2016,04,16,13,07,14.00
2016,04,16,13,08,14.00
2016,04,16,13,09,14.00
2016,04,16,13,10,14.10
2016,04,16,13,11,14.10
2016,04,16,13,12,14.20
2016,04,16,13,13,14.30
2016,04,16,13,14,14.30
2016,04,16,13,15,14.40
2016,04,16,13,16,14.50
2016,04,16,13,17,14.50
2016,04,16,13,18,14.50
2016,04,16,13,19,14.50
2016,04,16,13,20,14.40
2016,04,16,13,21,14.20
2016,04,16,13,22,14.20
2016,04,16,13,23,14.20
2016,04,16,13,24,14.20
2016,04,16,13,25,14.20
2016,04,16,13,26,14.20
2016,04,16,13,27,14.20
2016,04,16,13,28,14.10
2016,04,16,13,29,14.10
2016,04,16,13,30,14.20
2016,04,16,13,31,14.20
2016,04,16,13,32,14.20
2016,04,16,13,33,14.10
2016,04,16,13,34,14.10
2016,04,16,13,35,14.20
2016,04,16,13,36,14.20
2016,04,16,13,37,14.20
2016,04,16,13,38,14.20
2016,04,16,13,39,14.30
2016,04,16,13,40,14.40
2016,04,16,13,41,14.50
2016,04,16,13,42,14.60
2016,04,16,13,43,14.60
2016,04,16,13,44,14.70
2016,04,16,13,45,14.70
2016,04,16,13,46,14.70
2016,04,16,13,47,14.80
2016,04,16,13,48,14.90
2016,04,16,13,49,14.80
2016,04,16,13,50,14.60
2016,04,16,13,51,14.50
2016,04,16,13,52,14.40
2016,04,16,13,53,14.40
2016,04,16,13,54,14.50
2016,04,16,13,55,14.50
2016,04,16,13,56,14.60
2016,04,16,13,57,14.80
2016,04,16,13,58,14.90
2016,04,16,13,59,15.00
2016,04,16,14,00,15.00
2016,04,16,14,01,15.00
2016,04,16,14,02,15.00
2016,04,16,14,03,15.20
2016,04,16,14,04,15.30
2016,04,16,14,05,15.30
2016,04,16,14,06,15.20
2016,04,16,14,07,15.20
2016,04,16,14,08,15.20
2016,04,16,14,09,15.20
2016,04,16,14,10,15.20
2016,04,16,14,11,15.20
2016,04,16,14,12,15.20
2016,04,16,14,13,15.20
2016,04,16,14,14,15.30
2016,04,16,14,15,15.30
2016,04,16,14,16,15.30
2016,04,16,14,17,15.30
2016,04,16,14,18,15.30
2016,04,16,14,19,15.30
2016,04,16,14,20,15.20
2016,04,16,14,21,15.20
2016,04,16,14,22,15.20
2016,04,16,14,23,15.30
2016,04,16,14,24,15.30
2016,04,16,14,25,15.30
2016,04,16,14,26,15.20
2016,04,16,14,27,15.10
2016,04,16,14,28,15.10
2016,04,16,14,29,15.20
2016,04,16,14,30,15.30
2016,04,16,14,31,15.30
2016,04,16,14,32,15.30
2016,04,16,14,33,15.30
2016,04,16,14,34,15.30
2016,04,16,14,35,15.30
2016,04,16,14,36,15.30
2016,04,16,14,37,15.30
2016,04,16,14,38,15.30
2016,04,16,14,39,15.20
2016,04,16,14,40,15.20
2016,04,16,14,41,15.20
2016,04,16,14,42,15.10
2016,04,16,14,43,15.00
2016,04,16,14,44,14.90
2016,04,16,14,45,14.90
2016,04,16,14,46,14.90
2016,04,16,14,47,14.90
2016,04,16,14,48,14.80
2016,04,16,14,49,14.90
2016,04,16,14,50,14.90
2016,04,16,14,51,15.00
2016,04,16,14,52,15.10
2016,04,16,14,53,15.20
2016,04,16,14,54,15.20
2016,04,16,14,55,15.30
2016,04,16,14,56,15.30
2016,04,16,14,57,15.30
2016,04,16,14,58,15.30
2016,04,16,14,59,15.40
2016,04,16,15,00,15.40
2016,04,16,15,01,15.40
2016,04,16,15,02,15.40
2016,04,16,15,03,15.40
2016,04,16,15,04,15.30
2016,04,16,15,05,15.20
2016,04,16,15,06,15.20
2016,04,16,15,07,15.30
2016,04,16,15,08,15.30
2016,04,16,15,09,15.30
2016,04,16,15,10,15.30
2016,04,16,15,11,15.30
2016,04,16,15,12,15.30
2016,04,16,15,13,15.30
2016,04,16,15,14,15.30
2016,04,16,15,15,15.30
2016,04,16,15,16,15.20
2016,04,16,15,17,15.20
2016,04,16,15,18,15.10
2016,04,16,15,19,15.10
2016,04,16,15,20,15.00
2016,04,16,15,21,15.00
2016,04,16,15,22,15.00
2016,04,16,15,23,15.00
2016,04,16,15,24,15.10
2016,04,16,15,25,15.10
2016,04,16,15,26,15.10
2016,04,16,15,27,15.20
2016,04,16,15,28,15.20
2016,04,16,15,29,15.30
2016,04,16,15,30,15.30
2016,04,16,15,31,15.40
2016,04,16,15,32,15.40
2016,04,16,15,33,15.30
2016,04,16,15,34,15.30
2016,04,16,15,35,15.30
2016,04,16,15,36,15.30
2016,04,16,15,37,15.30
2016,04,16,15,38,15.30
2016,04,16,15,39,15.40
2016,04,16,15,40,15.50
2016,04,16,15,41,15.50
2016,04,16,15,42,15.50
2016,04,16,15,43,15.60
2016,04,16,15,44,15.60
2016,04,16,15,45,15.70
2016,04,16,15,46,15.80
2016,04,16,15,47,15.80
2016,04,16,15,48,15.80
2016,04,16,15,49,15.80
2016,04,16,15,50,15.80
2016,04,16,15,51,15.90
2016,04,16,15,52,15.90
2016,04,16,15,53,16.00
2016,04,16,15,54,16.10
2016,04,16,15,55,16.10
2016,04,16,15,56,16.20
2016,04,16,15,57,16.20
2016,04,16,15,58,16.20
2016,04,16,15,59,16.20
2016,04,16,16,00,16.00
2016,04,16,16,01,15.80
2016,04,16,16,02,15.70
2016,04,16,16,03,15.50
2016,04,16,16,04,15.40
2016,04,16,16,05,15.40
2016,04,16,16,06,15.40
2016,04,16,16,07,15.40
2016,04,16,16,08,15.50
2016,04,16,16,09,15.60
2016,04,16,16,10,15.60
2016,04,16,16,11,15.60
2016,04,16,16,12,15.60
2016,04,16,16,13,15.70
2016,04,16,16,14,15.70
2016,04,16,16,15,15.70
2016,04,16,16,16,15.70
2016,04,16,16,17,15.70
2016,04,16,16,18,15.80
2016,04,16,16,19,15.80
2016,04,16,16,20,15.80
2016,04,16,16,21,15.80
2016,04,16,16,22,15.90
2016,04,16,16,23,16.00
2016,04,16,16,24,16.10
2016,04,16,16,25,16.10
2016,04,16,16,26,16.10
2016,04,16,16,27,16.00
2016,04,16,16,28,15.80
2016,04,16,16,29,15.80
2016,04,16,16,30,15.80
2016,04,16,16,31,15.80
2016,04,16,16,32,15.80
2016,04,16,16,33,15.90
2016,04,16,16,34,15.90
2016,04,16,16,35,15.80
2016,04,16,16,36,15.80
2016,04,16,16,37,15.80
2016,04,16,16,38,15.80
2016,04,16,16,39,15.90
2016,04,16,16,40,16.00
2016,04,16,16,41,16.10
2016,04,16,16,42,16.20
2016,04,16,16,43,16.30
2016,04,16,16,44,16.30
2016,04,16,16,45,16.30
2016,04,16,16,46,16.40
2016,04,16,16,47,16.40
2016,04,16,16,48,16.40
2016,04,16,16,49,16.50
2016,04,16,16,50,16.50
2016,04,16,16,51,16.40
2016,04,16,16,52,16.30
2016,04,16,16,53,16.20
2016,04,16,16,54,16.20
2016,04,16,16,55,16.20
2016,04,16,16,56,16.20
2016,04,16,16,57,16.20
2016,04,16,16,58,16.20
2016,04,16,16,59,16.20
2016,04,16,17,00,16.20
2016,04,16,17,01,16.20
2016,04,16,17,02,16.20
2016,04,16,17,03,16.20
2016,04,16,17,04,16.10
2016,04,16,17,05,16.10
2016,04,16,17,06,16.10
2016,04,16,17,07,16.10
2016,04,16,17,08,16.10
2016,04,16,17,09,16.10
2016,04,16,17,10,16.10
2016,04,16,17,11,16.10
2016,04,16,17,12,16.10
2016,04,16,17,13,16.10
2016,04,16,17,14,16.10
2016,04,16,17,15,16.10
2016,04,16,17,16,16.00
2016,04,16,17,17,15.80
2016,04,16,17,18,15.80
2016,04,16,17,19,15.80
2016,04,16,17,20,15.80
2016,04,16,17,21,15.80
2016,04,16,17,22,15.80
2016,04,16,17,23,15.80
2016,04,16,17,24,15.80
2016,04,16,17,25,15.70
2016,04,16,17,26,15.70
2016,04,16,17,27,15.80
2016,04,16,17,28,15.80
2016,04,16,17,29,15.80
2016,04,16,17,30,15.80
2016,04,16,17,31,15.80
2016,04,16,17,32,15.80
2016,04,16,17,33,15.80
2016,04,16,17,34,15.80
2016,04,16,17,35,15.80
2016,04,16,17,36,15.80
2016,04,16,17,37,15.80
2016,04,16,17,38,15.80
2016,04,16,17,39,15.80
2016,04,16,17,40,15.80
2016,04,16,17,41,15.80
2016,04,16,17,42,15.80